Home > Weather > Abu Dhabi > Past weeks

Flag for United Arab Emirates Weather for the Past 2 Weeks in Abu Dhabi, Abu Dhabi, United Arab Emirates

Now
84 °F

Passing clouds.


Feels Like: 90 °F
Forecast: 85 / 99 °F
Wind: 6 mph from North

Location: Abu Dhabi Bateen Airport

Current Time: May 6, 2016 at 4:13:11 AM

Latest Report: May 6, 2016 at 3:00 AM


Visibility: N/A

Pressure: 29.68 "Hg

Humidity: 66%

Dew Point: 72 °F

Location of Abu DhabiLocation

Historic Weather in Abu Dhabi — Graph

°F

Abu Dhabi Temperature Yesterday

Maximum temperature yesterday: 100 °F (at 12:00 PM)
Minimum temperature yesterday: 81 °F (at 5:00 AM)
Average temperature yesterday: 88 °F

High & Low Weather Summary for the Past Weeks

 TemperatureHumidityPressure
High106 °F (Apr 29, 1:00 PM)84% (May 1, 12:00 AM)29.98 "Hg (May 1, 12:00 AM)
Low72 °F (Apr 22, 3:00 AM)12% (Apr 24, 2:00 PM)29.65 "Hg (May 4, 4:00 PM)
Average85 °F42%29.78 "Hg
* Reported Apr 21 3:00 AM — May 6 3:00 AM, Abu Dhabi, Weather by CustomWeather, © 2016

Note: Actual official high and low records may vary slightly from our data, if they occured in-between our weather recording intervals... More about our weather records

Advertising

Abu Dhabi Weather History for the Previous 24 Hours

Scroll right to see more
 ConditionsComfort  
Time TempWeatherWind HumidityBarometerVisibility
3:00 AM
Fri, May 6
84 °FPassing clouds.6 mph66%29.68 "HgN/A
2:00 AM86 °FClear.7 mph55%29.68 "Hg10 mi
1:00 AM84 °FClear.6 mph51%29.71 "Hg10 mi
12:00 AM84 °FClear.5 mph55%29.71 "Hg10 mi
11:00 PM
Thu, May 5
84 °FClear.7 mph55%29.74 "Hg10 mi
10:00 PM84 °FClear.7 mph58%29.71 "Hg10 mi
9:00 PM84 °FPassing clouds.8 mph58%29.71 "HgN/A
8:00 PM84 °FClear.9 mph62%29.71 "Hg10 mi
7:00 PM86 °FClear.13 mph59%29.68 "Hg10 mi
6:00 PM88 °FSunny.15 mph52%29.68 "Hg10 mi
5:00 PM90 °FPassing clouds.12 mph55%29.68 "HgN/A
4:00 PM93 °FPassing clouds.14 mph34%29.68 "HgN/A
3:00 PM97 °FPassing clouds.12 mph32%29.68 "HgN/A
2:00 PM100 °FSunny.10 mph15%29.68 "Hg10 mi
1:00 PM100 °FPassing clouds.8 mph17%29.71 "HgN/A
12:00 PM100 °FSunny.5 mph14%29.74 "Hg10 mi
11:00 AM97 °FPassing clouds.5 mph14%29.74 "HgN/A
10:00 AM93 °FPassing clouds.5 mph26%29.77 "HgN/A
9:00 AM90 °FSunny.5 mph26%29.74 "Hg10 mi
8:00 AM88 °FSunny.2 mph31%29.74 "Hg10 mi
7:00 AM82 °FSunny.2 mph58%29.71 "Hg10 mi
6:00 AM81 °FSunny.2 mph66%29.68 "Hg10 mi
5:00 AM81 °FClear.3 mph66%29.68 "Hg10 mi
4:00 AM82 °FClear.2 mph42%29.65 "Hg10 mi
Weather by CustomWeather, © 2016

See weather overviewHow to use our weather pages